STARLINK-35390, 65796

Orbit data source: Space-Track

STARLINK-35390, 65796 is a payload satellite owned by SpaceX/Seattle (US) in SSO that was launched on Fri, 26 Sep 2025 UTC via an FALCON 9 launch vehicle from the Air Force Western Test Range (AFWTR). Payload-class satellites include a variety of spacecraft equipped with specific instruments for various scientific and technological missions. These include communications satellites like Starlink; space stations such as the ISS; scientific satellites like the Hubble; Earth observation satellites from companies like Planet Labs, Umbra, and HawkEye 360; GPS; miniature CubeSats for education and research; and military/defense satellites.

Loading next visibility...
Identifier
65796, 2025-218F
Orbit
SSO
Country
Flag of USUS
Related business
Manufacturer
SpaceX/Seattle
Mission
Operational Commercial Communications
Bus & Motor
STARLINK V2MO, Unknown motor
Mass
575 kg wet, ~530 kg dry
Launch date (UTC)
2025-09-26 (2 months ago)
Launch vehicle
FALCON 9
Launch site
Air Force Western Test Range (AFWTR)
Object type
Payload
Rocket body
Debris
Shape & HBR
Box + 2 Pan, 17.7 m
Radar Cross Section
36.964 m²

Expand to show TLE details & history
Last TLE update: 16 hours ago

TLE from 16 hours ago
0 STARLINK-35390
1 65796U 25218F   25340.59477117  .00011738  00000-0  81608-3 0  9992
2 65796  97.6018 201.2225 0003459  56.2701 303.8855 15.05659542 10962
Epoch: 2025-12-06T14:16Z
TLE epoch observation values (Epoch: 2025-12-06T14:16:28.229Z)
Latitude
-0°
Longitude
-88.51538°
Altitude
551.211 km
Speed
7.587 km/s
True Right ascension
13h 24m 53s
True Declination
0° 00' 00"
Sunlit
Object was in daylight at epoch
Visualization orbit readout
Latitude
Unknown
Longitude
Unknown
Altitude
Unknown
Speed
Unknown
Apparent Right ascension
Unknown
Apparent Declination
Unknown
Sunlit
N/A
Visualization observer readout
Local Sidereal Time
04:00:47
Azimuth
Unknown
Elevation
Unknown
Doppler factor
Unknown
Orbital elements
Apogee altitude
548.871 km
Perigee altitude
544.08 km
Semi-major axis
6,924.612 km
Eccentricity
0.00035
Inclination
97.6018°
RAAN
201.2225°
Arg. of periapsis
56.2701°
True anomaly
303.85259°
Mean anomaly
303.8855°
Eccentric anomaly
303.86904°
Mean motion
3.7666 °/min
Orbital period
95.58 mins
BSTAR
0.00081608
Loading maneuver chart data...
Computing Atmospheric mass density...
Loading historical data...
Loading historical data...
Loading historical data...
Loading historical data...
Loading historical data...
Loading historical data...
Loading historical data...

Documentation

Showing up to 5 results
|